| time (UTC) | temp F | wind direction | speed MPH | gust MPH | rain 1hr in | rain 24hr in | rain mn in | humidity % | barometer mb |
| 20260904201014 | 62 | 0.0 | 0.0 | 0.00 | 0.37 | 0.37 | 81 | 1012.4 | |
| 20260904200504 | 62 | 0.0 | 0.0 | 0.00 | 0.37 | 0.37 | 81 | 1012.5 | |
| 20260904200112 | 62 | 0.0 | 0.0 | 0.00 | 0.37 | 0.37 | 81 | 1012.4 | |
| 20260904195550 | 62 | 0.0 | 0.0 | 0.00 | 0.37 | 0.37 | 81 | 1012.5 | |
| 20260904195040 | 62 | 0.0 | 0.0 | 0.00 | 0.37 | 0.37 | 81 | 1012.4 | |
| 20260904194558 | 62 | 0.0 | 0.0 | 0.00 | 0.37 | 0.37 | 81 | 1012.2 | |
| 20260904194048 | 62 | 0.0 | 0.0 | 0.00 | 0.37 | 0.37 | 81 | 1012.2 | |
| 20260904193538 | 62 | 0.0 | 0.0 | 0.00 | 0.37 | 0.37 | 81 | 1012.1 | |
| 20260904193058 | 63 | 0.0 | 0.0 | 0.00 | 0.37 | 0.37 | 82 | 1012.0 | |
| 20260904192548 | 63 | 0.0 | 0.0 | 0.00 | 0.37 | 0.37 | 82 | 1012.0 | |
| 20260904192037 | 63 | 0.0 | 0.0 | 0.00 | 0.37 | 0.37 | 82 | 1011.9 | |
| 20260904191559 | 63 | 0.0 | 0.0 | 0.00 | 0.37 | 0.37 | 82 | 1011.9 | |
| 20260904191048 | 63 | 0.0 | 0.0 | 0.00 | 0.37 | 0.37 | 83 | 1011.7 | |
| 20260904190539 | 63 | 0.0 | 0.0 | 0.00 | 0.37 | 0.37 | 83 | 1011.6 | |
| 20260904190101 | 63 | 0.0 | 0.0 | 0.00 | 0.37 | 0.37 | 83 | 1011.6 | |
| 20260904185550 | 63 | 0.0 | 0.0 | 0.00 | 0.37 | 0.37 | 84 | 1011.6 | |
| 20260904185040 | 63 | 0.0 | 0.0 | 0.00 | 0.37 | 0.37 | 84 | 1011.3 | |
| 20260904184623 | 63 | 0.0 | 0.0 | 0.00 | 0.37 | 0.37 | 85 | 1011.2 | |
| 20260904184051 | 63 | 0.0 | 0.0 | 0.00 | 0.37 | 0.37 | 86 | 1011.2 | |
| 20260904183545 | 63 | 0.0 | 0.0 | 0.00 | 0.37 | 0.37 | 86 | 1011.2 | |
| 20260904183100 | 63 | 0.0 | 0.0 | 0.00 | 0.37 | 0.37 | 86 | 1011.0 | |
| 20260904182555 | 63 | 0.0 | 0.0 | 0.00 | 0.37 | 0.37 | 86 | 1011.0 | |
| 20260904182040 | 63 | 0.0 | 0.0 | 0.00 | 0.37 | 0.37 | 86 | 1010.9 | |
| 20260904181601 | 63 | 0.0 | 0.0 | 0.00 | 0.37 | 0.37 | 86 | 1010.9 | |
| 20260904181052 | 63 | 0.0 | 0.0 | 0.00 | 0.37 | 0.37 | 86 | 1010.9 | |
| 20260904180541 | 64 | 0.0 | 0.0 | 0.00 | 0.37 | 0.37 | 86 | 1010.8 | |
| 20260904180000 | 64 | 0.0 | 0.0 | 0.00 | 0.37 | 0.37 | 86 | 1010.7 | |
| 20260904175552 | 64 | 0.0 | 0.0 | 0.00 | 0.37 | 0.37 | 86 | 1010.6 | |
| 20260904175042 | 64 | 0.0 | 0.0 | 0.00 | 0.37 | 0.37 | 86 | 1010.5 | |
| 20260904174502 | 64 | 0.0 | 0.0 | 0.00 | 0.37 | 0.37 | 86 | 1010.6 | |
| 20260904174053 | 63 | 0.0 | 0.0 | 0.00 | 0.37 | 0.37 | 86 | 1010.6 | |
| 20260904173543 | 64 | 0.0 | 0.0 | 0.00 | 0.37 | 0.37 | 87 | 1010.5 | |
| 20260904173015 | 64 | 0.0 | 0.0 | 0.00 | 0.37 | 0.37 | 87 | 1010.3 | |
| 20260904172502 | 64 | 0.0 | 0.0 | 0.00 | 0.37 | 0.37 | 87 | 1010.4 | |
| 20260904172054 | 64 | 0.0 | 0.0 | 0.00 | 0.37 | 0.37 | 87 | 1010.1 | |
| 20260904171515 | 64 | 0.0 | 0.0 | 0.00 | 0.37 | 0.37 | 88 | 1010.3 | |
| 20260904171004 | 64 | 0.0 | 0.0 | 0.00 | 0.37 | 0.37 | 89 | 1010.3 | |
| 20260904170556 | 64 | 0.0 | 0.0 | 0.00 | 0.37 | 0.37 | 89 | 1010.4 | |
| 20260904170014 | 64 | 0.0 | 0.0 | 0.00 | 0.37 | 0.37 | 89 | 1010.2 | |
| 20260904165501 | 64 | 0.0 | 0.0 | 0.00 | 0.37 | 0.37 | 89 | 1010.2 | |
| 20260904165053 | 64 | 0.0 | 0.0 | 0.00 | 0.37 | 0.37 | 89 | 1010.1 | |
| 20260904164522 | 64 | 0.0 | 0.0 | 0.00 | 0.37 | 0.37 | 89 | 1010.0 | |
| 20260904164012 | 64 | 0.0 | 0.0 | 0.00 | 0.37 | 0.37 | 90 | 1010.0 | |
| 20260904163501 | 64 | 0.0 | 0.0 | 0.00 | 0.37 | 0.37 | 90 | 1009.9 | |
| 20260904163023 | 64 | 0.0 | 0.0 | 0.00 | 0.37 | 0.37 | 90 | 1009.9 | |
| 20260904162513 | 64 | 0.0 | 0.0 | 0.00 | 0.37 | 0.37 | 91 | 1009.9 | |
| 20260904162003 | 64 | 0.0 | 0.0 | 0.00 | 0.37 | 0.37 | 91 | 1009.8 | |
| 20260904161523 | 64 | 0.0 | 0.0 | 0.00 | 0.37 | 0.37 | 91 | 1009.8 | |
| 20260904161014 | 64 | 0.0 | 0.0 | 0.00 | 0.37 | 0.37 | 91 | 1009.7 | |
| 20260904160603 | 64 | 0.0 | 0.0 | 0.00 | 0.37 | 0.37 | 92 | 1009.6 | |
| 20260904160043 | 64 | 0.0 | 0.0 | 0.00 | 0.37 | 0.37 | 92 | 1009.7 | |
| 20260904155521 | 64 | 0.0 | 0.0 | 0.00 | 0.37 | 0.37 | 92 | 1009.6 | |
| 20260904155011 | 64 | 0.0 | 0.0 | 0.00 | 0.37 | 0.37 | 92 | 1009.8 | |
| 20260904154532 | 64 | 0.0 | 0.0 | 0.00 | 0.37 | 0.37 | 92 | 1009.6 | |
| 20260904154022 | 64 | 0.0 | 0.0 | 0.00 | 0.37 | 0.37 | 92 | 1009.6 | |
| 20260904153512 | 64 | 0.0 | 0.0 | 0.00 | 0.37 | 0.37 | 92 | 1009.6 | |
| 20260904153032 | 64 | 0.0 | 0.0 | 0.01 | 0.37 | 0.37 | 92 | 1009.7 | |
| 20260904152522 | 64 | 0.0 | 0.0 | 0.01 | 0.37 | 0.37 | 93 | 1009.7 | |
| 20260904152012 | 64 | 0.0 | 0.0 | 0.02 | 0.37 | 0.37 | 93 | 1009.6 | |
| 20260904151543 | 64 | 0.0 | 0.0 | 0.02 | 0.37 | 0.37 | 93 | 1009.5 | |
| 20260904151033 | 64 | 0.0 | 0.0 | 0.03 | 0.37 | 0.37 | 93 | 1009.6 | |
| 20260904150523 | 64 | 0.0 | 0.0 | 0.03 | 0.37 | 0.37 | 93 | 1009.4 | |
| 20260904150044 | 64 | 0.0 | 0.0 | 0.03 | 0.37 | 0.37 | 93 | 1009.5 | |
| 20260904145534 | 64 | 0.0 | 0.0 | 0.03 | 0.37 | 0.37 | 93 | 1009.3 | |
| 20260904145023 | 64 | 0.0 | 0.0 | 0.03 | 0.37 | 0.37 | 93 | 1009.5 | |
| 20260904144545 | 64 | 0.0 | 0.0 | 0.04 | 0.37 | 0.37 | 93 | 1009.3 | |
| 20260904144034 | 63 | 0.0 | 0.0 | 0.04 | 0.37 | 0.37 | 93 | 1009.4 | |
| 20260904143528 | 63 | 0.0 | 0.0 | 0.04 | 0.37 | 0.37 | 93 | 1009.3 | |
| 20260904143045 | 63 | 0.0 | 0.0 | 0.04 | 0.36 | 0.36 | 93 | 1009.2 | |
| 20260904142536 | 63 | 0.0 | 0.0 | 0.04 | 0.36 | 0.36 | 92 | 1009.3 | |
| 20260904142025 | 63 | 0.0 | 0.0 | 0.03 | 0.35 | 0.35 | 92 | 1009.1 | |
| 20260904141553 | 63 | 0.0 | 0.0 | 0.02 | 0.35 | 0.35 | 93 | 1009.1 | |
| 20260904141038 | 64 | 0.0 | 0.0 | 0.02 | 0.34 | 0.34 | 93 | 1009.0 | |
| 20260904140527 | 63 | 0.0 | 0.0 | 0.02 | 0.34 | 0.34 | 93 | 1008.8 | |
| 20260904140050 | 63 | 0.0 | 0.0 | 0.02 | 0.34 | 0.34 | 93 | 1008.8 | |
| 20260904135540 | 63 | 0.0 | 0.0 | 0.02 | 0.34 | 0.34 | 92 | 1008.8 | |
| 20260904135026 | 63 | 0.0 | 0.0 | 0.02 | 0.34 | 0.34 | 92 | 1008.9 | |
| 20260904134609 | 63 | 0.0 | 0.0 | 0.02 | 0.33 | 0.33 | 92 | 1008.8 | |
| 20260904134037 | 64 | 0.0 | 0.0 | 0.02 | 0.33 | 0.33 | 92 | 1008.9 | |
| 20260904133527 | 64 | 0.0 | 0.0 | 0.03 | 0.33 | 0.33 | 92 | 1008.8 | |
| 20260904133052 | 64 | 0.0 | 0.0 | 0.02 | 0.32 | 0.32 | 92 | 1008.7 | |
| 20260904132541 | 64 | 0.0 | 0.0 | 0.09 | 0.32 | 0.32 | 92 | 1008.8 | |
| 20260904132028 | 64 | 0.0 | 0.0 | 0.11 | 0.32 | 0.32 | 92 | 1008.6 | |
| 20260904131550 | 64 | 0.0 | 0.0 | 0.11 | 0.32 | 0.32 | 92 | 1008.8 | |
| 20260904131039 | 64 | 0.0 | 0.0 | 0.10 | 0.31 | 0.31 | 92 | 1008.8 | |
| 20260904130529 | 64 | 0.0 | 0.0 | 0.10 | 0.31 | 0.31 | 92 | 1008.6 | |
| 20260904130049 | 64 | 0.0 | 0.0 | 0.10 | 0.31 | 0.31 | 92 | 1008.7 | |
| 20260904125544 | 64 | 0.0 | 0.0 | 0.10 | 0.31 | 0.31 | 92 | 1008.7 | |
| 20260904125029 | 64 | 0.0 | 0.0 | 0.10 | 0.31 | 0.31 | 91 | 1008.4 | |
| 20260904124601 | 64 | 0.0 | 0.0 | 0.09 | 0.31 | 0.31 | 91 | 1008.4 | |
| 20260904124039 | 65 | 0.0 | 0.0 | 0.10 | 0.31 | 0.31 | 91 | 1008.5 | |
| 20260904123530 | 65 | 0.0 | 0.0 | 0.12 | 0.30 | 0.30 | 90 | 1008.4 | |
| 20260904123058 | 65 | 0.0 | 0.0 | 0.14 | 0.30 | 0.30 | 90 | 1008.4 | |
| 20260904122541 | 67 | 0.0 | 0.0 | 0.10 | 0.22 | 0.22 | 90 | 1008.5 | |
| 20260904122035 | 69 | 0.0 | 0.0 | 0.09 | 0.21 | 0.21 | 92 | 1008.0 | |
| 20260904121554 | 69 | 0.0 | 0.0 | 0.09 | 0.21 | 0.21 | 92 | 1007.7 | |
| 20260904121042 | 69 | 0.0 | 0.0 | 0.09 | 0.21 | 0.21 | 92 | 1007.8 | |
| 20260904120536 | 69 | 0.0 | 0.0 | 0.09 | 0.21 | 0.21 | 91 | 1007.8 | |
| 20260904120054 | 68 | 0.0 | 0.0 | 0.09 | 0.21 | 0.21 | 91 | 1008.0 | |
| 20260904115544 | 69 | 0.0 | 0.0 | 0.09 | 0.21 | 0.21 | 91 | 1007.9 | |
| 20260904115031 | 68 | 0.0 | 0.0 | 0.09 | 0.21 | 0.21 | 91 | 1008.1 | |
| 20260904114552 | 68 | 0.0 | 0.0 | 0.09 | 0.21 | 0.21 | 90 | 1008.1 | |
| 20260904114043 | 69 | 0.0 | 0.0 | 0.09 | 0.20 | 0.20 | 90 | 1008.1 | |
| 20260904113532 | 69 | 0.0 | 0.0 | 0.06 | 0.17 | 0.17 | 89 | 1008.0 | |
| 20260904113054 | 69 | 0.0 | 0.0 | 0.03 | 0.15 | 0.15 | 89 | 1008.0 | |
| 20260904112544 | 69 | 0.0 | 0.0 | 0.00 | 0.12 | 0.12 | 89 | 1007.8 | |
| 20260904112035 | 69 | 0.0 | 0.0 | 0.00 | 0.12 | 0.12 | 89 | 1007.7 | |
| 20260904111554 | 69 | 0.0 | 0.0 | 0.00 | 0.12 | 0.12 | 89 | 1007.8 | |
| 20260904111044 | 69 | 0.0 | 0.0 | 0.01 | 0.12 | 0.12 | 90 | 1007.9 | |
| 20260904110534 | 69 | 0.0 | 0.0 | 0.01 | 0.12 | 0.12 | 90 | 1007.9 | |
| 20260904110054 | 69 | 0.0 | 0.0 | 0.01 | 0.12 | 0.12 | 91 | 1008.3 | |
| 20260904105544 | 69 | 0.0 | 0.0 | 0.02 | 0.12 | 0.12 | 91 | 1008.1 | |
| 20260904105036 | 68 | 0.0 | 0.0 | 0.08 | 0.12 | 0.12 | 91 | 1008.1 | |
| 20260904104556 | 68 | 0.0 | 0.0 | 0.09 | 0.12 | 0.12 | 91 | 1008.0 | |
| 20260904104046 | 68 | 0.0 | 0.0 | 0.10 | 0.12 | 0.12 | 91 | 1008.1 | |
| 20260904103535 | 68 | 0.0 | 0.0 | 0.11 | 0.12 | 0.12 | 91 | 1008.2 | |
| 20260904103058 | 68 | 0.0 | 0.0 | 0.12 | 0.12 | 0.12 | 91 | 1008.2 | |
| 20260904102549 | 68 | 0.0 | 0.0 | 0.12 | 0.12 | 0.12 | 91 | 1008.4 | |
| 20260904102036 | 68 | 0.0 | 0.0 | 0.12 | 0.12 | 0.12 | 91 | 1008.3 | |
| 20260904101558 | 68 | 0.0 | 0.0 | 0.12 | 0.12 | 0.12 | 91 | 1008.2 | |
| 20260904101046 | 68 | 0.0 | 0.0 | 0.11 | 0.11 | 0.11 | 90 | 1008.3 | |
| 20260904100537 | 68 | 0.0 | 0.0 | 0.11 | 0.11 | 0.11 | 90 | 1008.3 | |
| 20260904100105 | 68 | 0.0 | 0.0 | 0.11 | 0.11 | 0.11 | 89 | 1008.3 | |
| 20260904095548 | 69 | 0.0 | 0.0 | 0.09 | 0.09 | 0.09 | 89 | 1008.3 | |
| 20260904095036 | 69 | 0.0 | 0.0 | 0.04 | 0.04 | 0.04 | 88 | 1008.5 | |
| 20260904094602 | 69 | 0.0 | 0.0 | 0.02 | 0.02 | 0.02 | 88 | 1008.4 | |
| 20260904094052 | 69 | 0.0 | 0.0 | 0.02 | 0.02 | 0.02 | 87 | 1008.3 | |
| 20260904093538 | 69 | 0.0 | 0.0 | 0.01 | 0.01 | 0.01 | 86 | 1008.2 | |
| 20260904093058 | 70 | 0.0 | 0.0 | 0.00 | 0.00 | 0.00 | 86 | 1008.0 | |
| 20260904092547 | 70 | 0.0 | 0.0 | 0.00 | 0.00 | 0.00 | 85 | 1008.1 | |
| 20260904092037 | 70 | 0.0 | 0.0 | 0.00 | 0.00 | 0.00 | 85 | 1008.1 | |
| 20260904091559 | 70 | 0.0 | 0.0 | 0.00 | 0.00 | 0.00 | 84 | 1008.2 | |
| 20260904091048 | 71 | 0.0 | 0.0 | 0.00 | 0.00 | 0.00 | 83 | 1008.2 | |
| 20260904090538 | 71 | 0.0 | 0.0 | 0.00 | 0.00 | 0.00 | 82 | 1008.2 | |
| 20260904090100 | 71 | 0.0 | 0.0 | 0.00 | 0.00 | 0.00 | 81 | 1008.0 | |
| 20260904085538 | 71 | 0.0 | 0.0 | 0.00 | 0.00 | 0.00 | 80 | 1008.0 | |
| 20260904085028 | 71 | 0.0 | 0.0 | 0.00 | 0.00 | 0.00 | 80 | 1008.1 | |
| 20260904084556 | 71 | 0.0 | 0.0 | 0.00 | 0.00 | 0.00 | 80 | 1008.0 | |
| 20260904084042 | 71 | 0.0 | 0.0 | 0.00 | 0.00 | 0.00 | 80 | 1008.1 | |
| 20260904083530 | 71 | 0.0 | 0.0 | 0.00 | 0.00 | 0.00 | 81 | 1008.0 | |
| 20260904083126 | 71 | 0.0 | 0.0 | 0.00 | 0.00 | 0.00 | 81 | 1008.0 | |
| 20260904082541 | 71 | 0.0 | 0.0 | 0.00 | 0.00 | 0.00 | 81 | 1008.1 | |
| 20260904082029 | 71 | 0.0 | 0.0 | 0.00 | 0.00 | 0.00 | 81 | 1008.0 | |
| 20260904081550 | 71 | 0.0 | 0.0 | 0.00 | 0.00 | 0.00 | 81 | 1008.1 | |
| 20260904081040 | 71 | 0.0 | 0.0 | 0.00 | 0.00 | 0.00 | 81 | 1008.2 | |
| 20260904080532 | 71 | 0.0 | 0.0 | 0.00 | 0.00 | 0.00 | 81 | 1008.2 | |
| 20260904080052 | 71 | 0.0 | 0.0 | 0.00 | 0.00 | 0.00 | 81 | 1008.2 | |
| 20260904075541 | 71 | 0.0 | 0.0 | 0.00 | 0.00 | 0.00 | 81 | 1008.3 | |
| 20260904075032 | 71 | 0.0 | 0.0 | 0.00 | 0.00 | 0.00 | 81 | 1008.2 | |
| 20260904074554 | 71 | 0.0 | 0.0 | 0.00 | 0.00 | 0.00 | 81 | 1008.3 | |
| 20260904074042 | 71 | 0.0 | 0.0 | 0.00 | 0.00 | 0.00 | 82 | 1008.4 | |
| 20260904073533 | 70 | 0.0 | 0.0 | 0.00 | 0.00 | 0.00 | 83 | 1008.4 | |
| 20260904073058 | 70 | 0.0 | 0.0 | 0.00 | 0.00 | 0.00 | 83 | 1008.4 | |
| 20260904072542 | 70 | 0.0 | 0.0 | 0.00 | 0.00 | 0.00 | 83 | 1008.5 | |
| 20260904072035 | 70 | 0.0 | 0.0 | 0.00 | 0.00 | 0.00 | 83 | 1008.6 | |
| 20260904071601 | 70 | 0.0 | 0.0 | 0.00 | 0.00 | 0.00 | 83 | 1008.7 | |
| 20260904071034 | 70 | 0.0 | 0.0 | 0.00 | 0.00 | 0.00 | 82 | 1009.0 | |
| 20260904070524 | 70 | 0.0 | 0.0 | 0.00 | 0.00 | 0.00 | 82 | 1009.0 | |
| 20260904070109 | 70 | 0.0 | 0.0 | 0.00 | 0.00 | 0.00 | 83 | 1008.8 | |
| 20260904065534 | 70 | 0.0 | 0.0 | 0.00 | 0.00 | 0.00 | 83 | 1008.8 | |
| 20260904065029 | 69 | 0.0 | 0.0 | 0.00 | 0.00 | 0.00 | 83 | 1008.9 | |
| 20260904064546 | 69 | 0.0 | 0.0 | 0.00 | 0.00 | 0.00 | 83 | 1008.9 | |
| 20260904064036 | 69 | 0.0 | 0.0 | 0.00 | 0.00 | 0.00 | 83 | 1009.1 | |
| 20260904063531 | 69 | 0.0 | 0.0 | 0.00 | 0.00 | 0.00 | 83 | 1009.0 | |
| 20260904063059 | 69 | 0.0 | 0.0 | 0.00 | 0.00 | 0.00 | 83 | 1009.0 | |
| 20260904062535 | 69 | 0.0 | 0.0 | 0.00 | 0.00 | 0.00 | 83 | 1009.1 | |
| 20260904062025 | 69 | 0.0 | 0.0 | 0.00 | 0.00 | 0.00 | 83 | 1009.2 | |
| 20260904061547 | 69 | 0.0 | 0.0 | 0.00 | 0.00 | 0.00 | 83 | 1009.0 | |
| 20260904061036 | 69 | 0.0 | 0.0 | 0.00 | 0.00 | 0.00 | 83 | 1009.1 | |
| 20260904060527 | 69 | 0.0 | 0.0 | 0.00 | 0.00 | 0.00 | 83 | 1009.1 | |
| 20260904060049 | 69 | 0.0 | 0.0 | 0.00 | 0.00 | 0.00 | 83 | 1009.2 | |
| 20260904055537 | 69 | 0.0 | 0.0 | 0.00 | 0.00 | 0.00 | 83 | 1009.2 | |
| 20260904055027 | 69 | 0.0 | 0.0 | 0.00 | 0.00 | 0.00 | 83 | 1009.2 | |
| 20260904054551 | 69 | 0.0 | 0.0 | 0.00 | 0.00 | 0.00 | 83 | 1009.3 | |
| 20260904054039 | 69 | 0.0 | 0.0 | 0.00 | 0.00 | 0.00 | 83 | 1009.3 | |
| 20260904053529 | 69 | 0.0 | 0.0 | 0.00 | 0.00 | 0.00 | 83 | 1009.5 | |
| 20260904053059 | 69 | 0.0 | 0.0 | 0.00 | 0.00 | 0.00 | 83 | 1009.6 | |
| 20260904052539 | 69 | 0.0 | 0.0 | 0.00 | 0.00 | 0.00 | 83 | 1009.8 | |
| 20260904052029 | 69 | 0.0 | 0.0 | 0.00 | 0.00 | 0.00 | 83 | 1009.9 | |
| 20260904051550 | 69 | 0.0 | 0.0 | 0.00 | 0.00 | 0.00 | 83 | 1009.9 | |
| 20260904051039 | 69 | 0.0 | 0.0 | 0.00 | 0.00 | 0.00 | 83 | 1009.9 | |
| 20260904050530 | 69 | 0.0 | 0.0 | 0.00 | 0.00 | 0.00 | 83 | 1009.9 | |
| 20260904050054 | 69 | 0.0 | 0.0 | 0.00 | 0.00 | 0.00 | 83 | 1009.9 | |
| 20260904045541 | 69 | 0.0 | 0.0 | 0.00 | 0.00 | 0.00 | 83 | 1010.0 | |
| 20260904045032 | 69 | 0.0 | 0.0 | 0.00 | 0.00 | 0.00 | 84 | 1010.1 | |
| 20260904044552 | 69 | 0.0 | 0.0 | 0.00 | 0.00 | 0.00 | 84 | 1010.0 | |
| 20260904044042 | 69 | 0.0 | 0.0 | 0.00 | 0.00 | 0.00 | 84 | 1010.0 | |
| 20260904043531 | 69 | 0.0 | 0.0 | 0.00 | 0.00 | 0.00 | 84 | 1010.1 | |
| 20260904043100 | 69 | 0.0 | 0.0 | 0.00 | 0.00 | 0.00 | 84 | 1010.2 | |
| 20260904042547 | 69 | 0.0 | 0.0 | 0.00 | 0.00 | 0.00 | 84 | 1010.2 | |
| 20260904042033 | 69 | 0.0 | 0.0 | 0.00 | 0.00 | 0.00 | 84 | 1010.4 | |
| 20260904041553 | 69 | 0.0 | 0.0 | 0.00 | 0.00 | 0.00 | 85 | 1010.3 | |
| 20260904041046 | 69 | 0.0 | 0.0 | 0.00 | 0.00 | 0.00 | 84 | 1010.3 | |
| 20260904040533 | 69 | 0.0 | 0.0 | 0.00 | 0.00 | 0.00 | 84 | 1010.3 | |
| 20260904040105 | 69 | 0.0 | 0.0 | 0.00 | 0.00 | 0.00 | 84 | 1010.2 | |
| 20260904035544 | 69 | 0.0 | 0.0 | 0.00 | 0.00 | 0.00 | 84 | 1010.4 | |
| 20260904035033 | 69 | 0.0 | 0.0 | 0.00 | 0.00 | 0.00 | 85 | 1010.5 | |
| 20260904034554 | 69 | 0.0 | 0.0 | 0.00 | 0.00 | 0.00 | 84 | 1010.6 | |
| 20260904034044 | 69 | 0.0 | 0.0 | 0.00 | 0.00 | 0.00 | 84 | 1010.6 | |
| 20260904033534 | 69 | 0.0 | 0.0 | 0.00 | 0.00 | 0.00 | 85 | 1010.6 | |
| 20260904033055 | 69 | 0.0 | 0.0 | 0.00 | 0.00 | 0.00 | 85 | 1010.7 | |
| 20260904032545 | 69 | 0.0 | 0.0 | 0.00 | 0.00 | 0.00 | 85 | 1010.6 | |
| 20260904032035 | 69 | 0.0 | 0.0 | 0.00 | 0.00 | 0.00 | 85 | 1010.8 | |
| 20260904031605 | 69 | 0.0 | 0.0 | 0.00 | 0.00 | 0.00 | 85 | 1010.9 | |
| 20260904031046 | 69 | 0.0 | 0.0 | 0.00 | 0.00 | 0.00 | 86 | 1011.0 | |
| 20260904030536 | 69 | 0.0 | 0.0 | 0.00 | 0.00 | 0.00 | 86 | 1011.1 | |
| 20260904030057 | 69 | 0.0 | 0.0 | 0.00 | 0.00 | 0.00 | 86 | 1010.9 | |
| 20260904025546 | 69 | 0.0 | 0.0 | 0.00 | 0.00 | 0.00 | 86 | 1011.0 | |
| 20260904025036 | 69 | 0.0 | 0.0 | 0.00 | 0.00 | 0.00 | 86 | 1011.0 | |
| 20260904024505 | 69 | 0.0 | 0.0 | 0.00 | 0.00 | 0.00 | 86 | 1011.1 | |
| 20260904024057 | 69 | 0.0 | 0.0 | 0.00 | 0.00 | 0.00 | 86 | 1011.2 | |
| 20260904023550 | 69 | 0.0 | 0.0 | 0.00 | 0.00 | 0.00 | 86 | 1011.2 | |
| 20260904023006 | 69 | 0.0 | 0.0 | 0.00 | 0.00 | 0.00 | 86 | 1011.3 | |
| 20260904022558 | 69 | 0.0 | 0.0 | 0.00 | 0.00 | 0.00 | 86 | 1011.3 | |
| 20260904022048 | 69 | 0.0 | 0.0 | 0.00 | 0.00 | 0.00 | 86 | 1011.4 | |
| 20260904021507 | 69 | 0.0 | 0.0 | 0.00 | 0.00 | 0.00 | 86 | 1011.5 | |
| 20260904021059 | 69 | 0.0 | 0.0 | 0.00 | 0.00 | 0.00 | 87 | 1011.5 | |
| 20260904020549 | 69 | 0.0 | 0.0 | 0.00 | 0.00 | 0.00 | 87 | 1011.6 | |
| 20260904020020 | 69 | 0.0 | 0.0 | 0.00 | 0.00 | 0.00 | 87 | 1011.7 | |
| 20260904015513 | 68 | 0.0 | 0.0 | 0.00 | 0.00 | 0.00 | 87 | 1011.7 | |
| 20260904015101 | 68 | 0.0 | 0.0 | 0.00 | 0.00 | 0.00 | 87 | 1011.8 | |
| 20260904014520 | 69 | 0.0 | 0.0 | 0.00 | 0.00 | 0.00 | 87 | 1011.8 | |
| 20260904014012 | 68 | 0.0 | 0.0 | 0.00 | 0.00 | 0.00 | 87 | 1012.0 | |
| 20260904013601 | 68 | 0.0 | 0.0 | 0.00 | 0.00 | 0.00 | 87 | 1012.0 | |
| 20260904013020 | 68 | 0.0 | 0.0 | 0.00 | 0.00 | 0.00 | 87 | 1012.0 | |
| 20260904012509 | 68 | 0.0 | 0.0 | 0.00 | 0.00 | 0.00 | 88 | 1012.1 | |
| 20260904012101 | 68 | 0.0 | 0.0 | 0.00 | 0.00 | 0.00 | 88 | 1012.1 | |
| 20260904011522 | 68 | 0.0 | 0.0 | 0.00 | 0.00 | 0.00 | 88 | 1012.1 | |
| 20260904011010 | 68 | 0.0 | 0.0 | 0.00 | 0.00 | 0.00 | 88 | 1012.2 | |
| 20260904010603 | 68 | 0.0 | 0.0 | 0.00 | 0.00 | 0.00 | 89 | 1012.2 | |
| 20260904010030 | 68 | 0.0 | 0.0 | 0.00 | 0.00 | 0.00 | 89 | 1012.2 | |
| 20260904005518 | 67 | 0.0 | 0.0 | 0.00 | 0.00 | 0.00 | 89 | 1012.3 | |
| 20260904005008 | 67 | 0.0 | 0.0 | 0.00 | 0.00 | 0.00 | 89 | 1012.2 | |
| 20260904004534 | 67 | 0.0 | 0.0 | 0.00 | 0.00 | 0.00 | 89 | 1012.2 | |
| 20260904004020 | 67 | 0.0 | 0.0 | 0.00 | 0.00 | 0.00 | 89 | 1012.4 | |
| 20260904003509 | 67 | 0.0 | 0.0 | 0.00 | 0.00 | 0.00 | 89 | 1012.3 | |
| 20260904003033 | 67 | 0.0 | 0.0 | 0.00 | 0.00 | 0.00 | 89 | 1012.2 | |
| 20260904002519 | 67 | 0.0 | 0.0 | 0.00 | 0.00 | 0.00 | 89 | 1012.3 | |
| 20260904002009 | 67 | 0.0 | 0.0 | 0.00 | 0.00 | 0.00 | 89 | 1012.3 | |
| 20260904001545 | 67 | 0.0 | 0.0 | 0.00 | 0.00 | 0.00 | 89 | 1012.4 | |
| 20260904001031 | 67 | 0.0 | 0.0 | 0.00 | 0.00 | 0.00 | 89 | 1012.5 | |
| 20260904000522 | 67 | 0.0 | 0.0 | 0.00 | 0.00 | 0.00 | 89 | 1012.7 | |
| 20260904000043 | 67 | 0.0 | 0.0 | 0.00 | 0.00 | 0.00 | 89 | 1012.7 | |
| 20260903235533 | 67 | 0.0 | 0.0 | 0.00 | 0.00 | 0.00 | 89 | 1012.8 | |
| 20260903235022 | 67 | 0.0 | 0.0 | 0.00 | 0.00 | 0.00 | 89 | 1012.8 | |
| 20260903234541 | 67 | 0.0 | 0.0 | 0.00 | 0.00 | 0.00 | 89 | 1012.8 | |
| 20260903234030 | 67 | 0.0 | 0.0 | 0.00 | 0.00 | 0.00 | 89 | 1013.0 | |
| 20260903233524 | 67 | 0.0 | 0.0 | 0.00 | 0.00 | 0.00 | 89 | 1013.0 | |
| 20260903233041 | 67 | 0.0 | 0.0 | 0.00 | 0.00 | 0.00 | 89 | 1013.2 | |
| 20260903232532 | 67 | 0.0 | 0.0 | 0.00 | 0.00 | 0.00 | 89 | 1013.2 | |
| 20260903232021 | 67 | 0.0 | 0.0 | 0.00 | 0.00 | 0.00 | 89 | 1013.0 | |
| 20260903231544 | 67 | 0.0 | 0.0 | 0.00 | 0.00 | 0.00 | 89 | 1013.1 | |
| 20260903231032 | 67 | 0.0 | 0.0 | 0.00 | 0.00 | 0.00 | 89 | 1013.2 | |
| 20260903230522 | 67 | 0.0 | 0.0 | 0.00 | 0.00 | 0.00 | 89 | 1013.4 | |
| 20260903230047 | 67 | 0.0 | 0.0 | 0.00 | 0.00 | 0.00 | 89 | 1013.5 | |
| 20260903225536 | 67 | 0.0 | 0.0 | 0.00 | 0.00 | 0.00 | 89 | 1013.5 | |
| 20260903225022 | 67 | 0.0 | 0.0 | 0.00 | 0.00 | 0.00 | 88 | 1013.6 | |
| 20260903224543 | 67 | 0.0 | 0.0 | 0.00 | 0.00 | 0.00 | 88 | 1013.6 | |
| 20260903224033 | 67 | 0.0 | 0.0 | 0.00 | 0.00 | 0.00 | 88 | 1013.7 | |
| 20260903223522 | 67 | 0.0 | 0.0 | 0.00 | 0.00 | 0.00 | 88 | 1013.5 | |
| 20260903223044 | 67 | 0.0 | 0.0 | 0.00 | 0.00 | 0.00 | 88 | 1013.7 | |
| 20260903222534 | 67 | 0.0 | 0.0 | 0.00 | 0.00 | 0.00 | 88 | 1013.8 | |
| 20260903222026 | 66 | 0.0 | 0.0 | 0.00 | 0.00 | 0.00 | 88 | 1013.8 | |
| 20260903221545 | 66 | 0.0 | 0.0 | 0.00 | 0.00 | 0.00 | 88 | 1013.9 | |
| 20260903221035 | 66 | 0.0 | 0.0 | 0.00 | 0.00 | 0.00 | 88 | 1013.9 | |
| 20260903220525 | 66 | 0.0 | 0.0 | 0.00 | 0.00 | 0.00 | 88 | 1014.0 | |
| 20260903220045 | 65 | 0.0 | 0.0 | 0.00 | 0.00 | 0.00 | 87 | 1014.1 | |
| 20260903215535 | 65 | 0.0 | 0.0 | 0.00 | 0.00 | 0.00 | 87 | 1014.2 | |
| 20260903215025 | 65 | 0.0 | 0.0 | 0.00 | 0.00 | 0.00 | 87 | 1014.2 | |
| 20260903214604 | 65 | 0.0 | 0.0 | 0.00 | 0.00 | 0.00 | 86 | 1014.2 | |
| 20260903214035 | 65 | 0.0 | 0.0 | 0.00 | 0.00 | 0.00 | 86 | 1014.3 | |
| 20260903213526 | 65 | 0.0 | 0.0 | 0.00 | 0.00 | 0.00 | 86 | 1014.2 | |
| 20260903213049 | 65 | 0.0 | 0.0 | 0.00 | 0.00 | 0.00 | 86 | 1014.2 | |
| 20260903212536 | 65 | 0.0 | 0.0 | 0.00 | 0.00 | 0.00 | 86 | 1014.2 | |
| 20260903212026 | 65 | 0.0 | 0.0 | 0.00 | 0.00 | 0.00 | 85 | 1014.2 | |
| 20260903211553 | 65 | 0.0 | 0.0 | 0.00 | 0.00 | 0.00 | 85 | 1014.3 | |
| 20260903211037 | 65 | 0.0 | 0.0 | 0.00 | 0.00 | 0.00 | 85 | 1014.4 | |
| 20260903210527 | 65 | 0.0 | 0.0 | 0.00 | 0.00 | 0.00 | 85 | 1014.5 | |
| 20260903210047 | 65 | 0.0 | 0.0 | 0.00 | 0.00 | 0.00 | 85 | 1014.6 | |
| 20260903205537 | 65 | 0.0 | 0.0 | 0.00 | 0.00 | 0.00 | 85 | 1014.6 | |
| 20260903205027 | 65 | 0.0 | 0.0 | 0.00 | 0.00 | 0.00 | 84 | 1014.5 | |
| 20260903204548 | 65 | 0.0 | 0.0 | 0.00 | 0.00 | 0.00 | 84 | 1014.5 | |
| 20260903204039 | 65 | 0.0 | 0.0 | 0.00 | 0.00 | 0.00 | 84 | 1014.6 | |
| 20260903203530 | 66 | 0.0 | 0.0 | 0.00 | 0.00 | 0.00 | 84 | 1014.6 | |
| 20260903203049 | 66 | 0.0 | 0.0 | 0.00 | 0.00 | 0.00 | 84 | 1014.6 | |
| 20260903202538 | 66 | 0.0 | 0.0 | 0.00 | 0.00 | 0.00 | 83 | 1014.6 | |
| 20260903202028 | 66 | 0.0 | 0.0 | 0.00 | 0.00 | 0.00 | 83 | 1014.6 | |
| 20260903201558 | 66 | 0.0 | 0.0 | 0.00 | 0.00 | 0.00 | 82 | 1014.8 |